﻿測定場所 (Monitoring sites),日付 (Measurement date),時間 (Measurement time),線量率 最大値 (max) μGy/h,線量率 最小値 (min) μGy/h,線量率 平均値 (average) μGy/h,
新宿 (Shinjuku),2012-10-21,23:01～24:00,0.0506,0.0435,0.0470,
新宿 (Shinjuku),2012-10-21,22:01～23:00,0.0500,0.0445,0.0471,
新宿 (Shinjuku),2012-10-21,21:01～22:00,0.0507,0.0435,0.0469,
新宿 (Shinjuku),2012-10-21,20:01～21:00,0.0503,0.0427,0.0467,
新宿 (Shinjuku),2012-10-21,19:01～20:00,0.0497,0.0429,0.0463,
新宿 (Shinjuku),2012-10-21,18:01～19:00,0.0508,0.0424,0.0466,
新宿 (Shinjuku),2012-10-21,17:01～18:00,0.0502,0.0434,0.0469,
新宿 (Shinjuku),2012-10-21,16:01～17:00,0.0501,0.0440,0.0469,
新宿 (Shinjuku),2012-10-21,15:01～16:00,0.0510,0.0431,0.0465,
新宿 (Shinjuku),2012-10-21,14:01～15:00,0.0499,0.0433,0.0468,
新宿 (Shinjuku),2012-10-21,13:01～14:00,0.0506,0.0429,0.0472,
新宿 (Shinjuku),2012-10-21,12:01～13:00,0.0506,0.0440,0.0473,
新宿 (Shinjuku),2012-10-21,11:01～12:00,0.0513,0.0445,0.0469,
新宿 (Shinjuku),2012-10-21,10:01～11:00,0.0505,0.0447,0.0478,
新宿 (Shinjuku),2012-10-21,09:01～10:00,0.0541,0.0455,0.0481,
新宿 (Shinjuku),2012-10-21,08:01～09:00,0.0510,0.0442,0.0478,
新宿 (Shinjuku),2012-10-21,07:01～08:00,0.0512,0.0457,0.0480,
新宿 (Shinjuku),2012-10-21,06:01～07:00,0.0513,0.0442,0.0476,
新宿 (Shinjuku),2012-10-21,05:01～06:00,0.0501,0.0438,0.0473,
新宿 (Shinjuku),2012-10-21,04:01～05:00,0.0502,0.0446,0.0475,
新宿 (Shinjuku),2012-10-21,03:01～04:00,0.0517,0.0428,0.0472,
新宿 (Shinjuku),2012-10-21,02:01～03:00,0.0499,0.0440,0.0470,
新宿 (Shinjuku),2012-10-21,01:01～02:00,0.0500,0.0452,0.0474,
新宿 (Shinjuku),2012-10-21,00:01～01:00,0.0498,0.0437,0.0473,
新宿 (Shinjuku),2012-10-20,23:01～24:00,0.0497,0.0410,0.0470,
新宿 (Shinjuku),2012-10-20,22:01～23:00,0.0501,0.0431,0.0465,
新宿 (Shinjuku),2012-10-20,21:01～22:00,0.0517,0.0431,0.0467,
新宿 (Shinjuku),2012-10-20,20:01～21:00,0.0506,0.0428,0.0461,
新宿 (Shinjuku),2012-10-20,19:01～20:00,0.0497,0.0438,0.0466,
新宿 (Shinjuku),2012-10-20,18:01～19:00,0.0494,0.0432,0.0461,
新宿 (Shinjuku),2012-10-20,17:01～18:00,0.0493,0.0432,0.0462,
新宿 (Shinjuku),2012-10-20,16:01～17:00,0.0494,0.0423,0.0462,
新宿 (Shinjuku),2012-10-20,15:01～16:00,0.0492,0.0431,0.0463,
新宿 (Shinjuku),2012-10-20,14:01～15:00,0.0499,0.0421,0.0466,
新宿 (Shinjuku),2012-10-20,13:01～14:00,0.0490,0.0422,0.0462,
新宿 (Shinjuku),2012-10-20,12:01～13:00,0.0510,0.0437,0.0469,
新宿 (Shinjuku),2012-10-20,11:01～12:00,0.0500,0.0436,0.0469,
新宿 (Shinjuku),2012-10-20,10:01～11:00,0.0529,0.0439,0.0477,
新宿 (Shinjuku),2012-10-20,09:01～10:00,0.0514,0.0438,0.0476,
新宿 (Shinjuku),2012-10-20,08:01～09:00,0.0507,0.0442,0.0475,
新宿 (Shinjuku),2012-10-20,07:01～08:00,0.0509,0.0448,0.0475,
新宿 (Shinjuku),2012-10-20,06:01～07:00,0.0509,0.0445,0.0475,
新宿 (Shinjuku),2012-10-20,05:01～06:00,0.0520,0.0435,0.0472,
新宿 (Shinjuku),2012-10-20,04:01～05:00,0.0502,0.0439,0.0472,
新宿 (Shinjuku),2012-10-20,03:01～04:00,0.0500,0.0448,0.0470,
新宿 (Shinjuku),2012-10-20,02:01～03:00,0.0511,0.0443,0.0470,
新宿 (Shinjuku),2012-10-20,01:01～02:00,0.0493,0.0436,0.0468,
新宿 (Shinjuku),2012-10-20,00:01～01:00,0.0507,0.0431,0.0461,
新宿 (Shinjuku),2012-10-19,23:01～24:00,0.0499,0.0426,0.0464,
新宿 (Shinjuku),2012-10-19,22:01～23:00,0.0492,0.0432,0.0464,
新宿 (Shinjuku),2012-10-19,21:01～22:00,0.0511,0.0434,0.0468,
新宿 (Shinjuku),2012-10-19,20:01～21:00,0.0500,0.0439,0.0465,
新宿 (Shinjuku),2012-10-19,19:01～20:00,0.0502,0.0428,0.0466,
新宿 (Shinjuku),2012-10-19,18:01～19:00,0.0492,0.0431,0.0465,
新宿 (Shinjuku),2012-10-19,17:01～18:00,0.0500,0.0424,0.0467,
新宿 (Shinjuku),2012-10-19,16:01～17:00,0.0505,0.0427,0.0465,
新宿 (Shinjuku),2012-10-19,15:01～16:00,0.0491,0.0446,0.0470,
新宿 (Shinjuku),2012-10-19,14:01～15:00,0.0493,0.0440,0.0466,
新宿 (Shinjuku),2012-10-19,13:01～14:00,0.0517,0.0442,0.0471,
新宿 (Shinjuku),2012-10-19,12:01～13:00,0.0498,0.0453,0.0475,
新宿 (Shinjuku),2012-10-19,11:01～12:00,0.0491,0.0453,0.0473,
新宿 (Shinjuku),2012-10-19,10:01～11:00,0.0511,0.0438,0.0472,
新宿 (Shinjuku),2012-10-19,09:01～10:00,0.0514,0.0431,0.0468,
新宿 (Shinjuku),2012-10-19,08:01～09:00,0.0505,0.0425,0.0468,
新宿 (Shinjuku),2012-10-19,07:01～08:00,0.0511,0.0435,0.0472,
新宿 (Shinjuku),2012-10-19,06:01～07:00,0.0497,0.0430,0.0469,
新宿 (Shinjuku),2012-10-19,05:01～06:00,0.0516,0.0445,0.0483,
新宿 (Shinjuku),2012-10-19,04:01～05:00,0.0579,0.0466,0.0518,
新宿 (Shinjuku),2012-10-19,03:01～04:00,0.0604,0.0522,0.0567,
新宿 (Shinjuku),2012-10-19,02:01～03:00,0.0609,0.0537,0.0569,
新宿 (Shinjuku),2012-10-19,01:01～02:00,0.0569,0.0504,0.0539,
新宿 (Shinjuku),2012-10-19,00:01～01:00,0.0565,0.0460,0.0508,
新宿 (Shinjuku),2012-10-18,23:01～24:00,0.0576,0.0485,0.0517,
新宿 (Shinjuku),2012-10-18,22:01～23:00,0.0560,0.0488,0.0532,
新宿 (Shinjuku),2012-10-18,21:01～22:00,0.0579,0.0487,0.0533,
新宿 (Shinjuku),2012-10-18,20:01～21:00,0.0546,0.0457,0.0502,
新宿 (Shinjuku),2012-10-18,19:01～20:00,0.0514,0.0452,0.0481,
新宿 (Shinjuku),2012-10-18,18:01～19:00,0.0514,0.0453,0.0482,
新宿 (Shinjuku),2012-10-18,17:01～18:00,0.0552,0.0463,0.0506,
新宿 (Shinjuku),2012-10-18,16:01～17:00,0.0572,0.0451,0.0495,
新宿 (Shinjuku),2012-10-18,15:01～16:00,0.0521,0.0445,0.0488,
新宿 (Shinjuku),2012-10-18,14:01～15:00,0.0537,0.0462,0.0497,
新宿 (Shinjuku),2012-10-18,13:01～14:00,0.0548,0.0465,0.0497,
新宿 (Shinjuku),2012-10-18,12:01～13:00,0.0514,0.0432,0.0473,
新宿 (Shinjuku),2012-10-18,11:01～12:00,0.0500,0.0455,0.0477,
新宿 (Shinjuku),2012-10-18,10:01～11:00,0.0526,0.0435,0.0474,
新宿 (Shinjuku),2012-10-18,09:01～10:00,0.0513,0.0439,0.0474,
新宿 (Shinjuku),2012-10-18,08:01～09:00,0.0522,0.0448,0.0484,
新宿 (Shinjuku),2012-10-18,07:01～08:00,0.0529,0.0428,0.0485,
新宿 (Shinjuku),2012-10-18,06:01～07:00,0.0510,0.0437,0.0476,
新宿 (Shinjuku),2012-10-18,05:01～06:00,0.0516,0.0437,0.0476,
新宿 (Shinjuku),2012-10-18,04:01～05:00,0.0510,0.0438,0.0474,
新宿 (Shinjuku),2012-10-18,03:01～04:00,0.0496,0.0425,0.0464,
新宿 (Shinjuku),2012-10-18,02:01～03:00,0.0507,0.0445,0.0469,
新宿 (Shinjuku),2012-10-18,01:01～02:00,0.0518,0.0431,0.0471,
新宿 (Shinjuku),2012-10-18,00:01～01:00,0.0516,0.0437,0.0477,
新宿 (Shinjuku),2012-10-17,23:01～24:00,0.0519,0.0451,0.0488,
新宿 (Shinjuku),2012-10-17,22:01～23:00,0.0521,0.0456,0.0487,
新宿 (Shinjuku),2012-10-17,21:01～22:00,0.0522,0.0458,0.0489,
新宿 (Shinjuku),2012-10-17,20:01～21:00,0.0539,0.0461,0.0496,
新宿 (Shinjuku),2012-10-17,19:01～20:00,0.0527,0.0474,0.0504,
新宿 (Shinjuku),2012-10-17,18:01～19:00,0.0553,0.0472,0.0513,
新宿 (Shinjuku),2012-10-17,17:01～18:00,0.0554,0.0475,0.0506,
新宿 (Shinjuku),2012-10-17,16:01～17:00,0.0519,0.0445,0.0479,
新宿 (Shinjuku),2012-10-17,15:01～16:00,0.0510,0.0437,0.0474,
新宿 (Shinjuku),2012-10-17,14:01～15:00,0.0502,0.0433,0.0466,
新宿 (Shinjuku),2012-10-17,13:01～14:00,0.0491,0.0427,0.0465,
新宿 (Shinjuku),2012-10-17,12:01～13:00,0.0500,0.0433,0.0464,
新宿 (Shinjuku),2012-10-17,11:01～12:00,0.0522,0.0443,0.0475,
新宿 (Shinjuku),2012-10-17,10:01～11:00,0.0523,0.0436,0.0482,
新宿 (Shinjuku),2012-10-17,09:01～10:00,0.0525,0.0442,0.0481,
新宿 (Shinjuku),2012-10-17,08:01～09:00,0.0527,0.0451,0.0480,
新宿 (Shinjuku),2012-10-17,07:01～08:00,0.0503,0.0446,0.0475,
新宿 (Shinjuku),2012-10-17,06:01～07:00,0.0515,0.0436,0.0475,
新宿 (Shinjuku),2012-10-17,05:01～06:00,0.0507,0.0436,0.0475,
新宿 (Shinjuku),2012-10-17,04:01～05:00,0.0504,0.0444,0.0474,
新宿 (Shinjuku),2012-10-17,03:01～04:00,0.0510,0.0446,0.0476,
新宿 (Shinjuku),2012-10-17,02:01～03:00,0.0502,0.0445,0.0475,
新宿 (Shinjuku),2012-10-17,01:01～02:00,0.0503,0.0444,0.0473,
新宿 (Shinjuku),2012-10-17,00:01～01:00,0.0513,0.0429,0.0466,
新宿 (Shinjuku),2012-10-16,23:01～24:00,0.0493,0.0441,0.0466,
新宿 (Shinjuku),2012-10-16,22:01～23:00,0.0506,0.0432,0.0466,
新宿 (Shinjuku),2012-10-16,21:01～22:00,0.0506,0.0413,0.0462,
新宿 (Shinjuku),2012-10-16,20:01～21:00,0.0510,0.0434,0.0463,
新宿 (Shinjuku),2012-10-16,19:01～20:00,0.0504,0.0426,0.0465,
新宿 (Shinjuku),2012-10-16,18:01～19:00,0.0491,0.0414,0.0465,
新宿 (Shinjuku),2012-10-16,17:01～18:00,0.0522,0.0434,0.0469,
新宿 (Shinjuku),2012-10-16,16:01～17:00,0.0501,0.0415,0.0457,
新宿 (Shinjuku),2012-10-16,15:01～16:00,0.0498,0.0432,0.0465,
新宿 (Shinjuku),2012-10-16,14:01～15:00,0.0495,0.0433,0.0469,
新宿 (Shinjuku),2012-10-16,13:01～14:00,0.0500,0.0441,0.0470,
新宿 (Shinjuku),2012-10-16,12:01～13:00,0.0513,0.0426,0.0471,
新宿 (Shinjuku),2012-10-16,11:01～12:00,0.0507,0.0434,0.0471,
新宿 (Shinjuku),2012-10-16,10:01～11:00,0.0511,0.0439,0.0474,
新宿 (Shinjuku),2012-10-16,09:01～10:00,0.0502,0.0441,0.0477,
新宿 (Shinjuku),2012-10-16,08:01～09:00,0.0508,0.0447,0.0472,
新宿 (Shinjuku),2012-10-16,07:01～08:00,0.0493,0.0468,0.0481,
新宿 (Shinjuku),2012-10-16,06:01～07:00,0.0503,0.0441,0.0472,
新宿 (Shinjuku),2012-10-16,05:01～06:00,0.0510,0.0438,0.0473,
新宿 (Shinjuku),2012-10-16,04:01～05:00,0.0511,0.0435,0.0471,
新宿 (Shinjuku),2012-10-16,03:01～04:00,0.0494,0.0431,0.0468,
新宿 (Shinjuku),2012-10-16,02:01～03:00,0.0507,0.0433,0.0468,
新宿 (Shinjuku),2012-10-16,01:01～02:00,0.0517,0.0435,0.0472,
新宿 (Shinjuku),2012-10-16,00:01～01:00,0.0503,0.0441,0.0470,
新宿 (Shinjuku),2012-10-15,23:01～24:00,0.0501,0.0439,0.0469,
新宿 (Shinjuku),2012-10-15,22:01～23:00,0.0507,0.0442,0.0468,
新宿 (Shinjuku),2012-10-15,21:01～22:00,0.0503,0.0436,0.0471,
新宿 (Shinjuku),2012-10-15,20:01～21:00,0.0514,0.0435,0.0469,
新宿 (Shinjuku),2012-10-15,19:01～20:00,0.0502,0.0436,0.0469,
新宿 (Shinjuku),2012-10-15,18:01～19:00,0.0507,0.0437,0.0470,
新宿 (Shinjuku),2012-10-15,17:01～18:00,0.0506,0.0438,0.0472,
新宿 (Shinjuku),2012-10-15,16:01～17:00,0.0503,0.0437,0.0471,
新宿 (Shinjuku),2012-10-15,15:01～16:00,0.0496,0.0434,0.0464,
新宿 (Shinjuku),2012-10-15,14:01～15:00,0.0502,0.0430,0.0470,
新宿 (Shinjuku),2012-10-15,13:01～14:00,0.0514,0.0440,0.0473,
新宿 (Shinjuku),2012-10-15,12:01～13:00,0.0514,0.0432,0.0472,
新宿 (Shinjuku),2012-10-15,11:01～12:00,0.0505,0.0437,0.0473,
新宿 (Shinjuku),2012-10-15,10:01～11:00,0.0521,0.0440,0.0475,
新宿 (Shinjuku),2012-10-15,09:01～10:00,0.0508,0.0434,0.0478,
新宿 (Shinjuku),2012-10-15,08:01～09:00,0.0511,0.0445,0.0479,
新宿 (Shinjuku),2012-10-15,07:01～08:00,0.0534,0.0447,0.0477,
新宿 (Shinjuku),2012-10-15,06:01～07:00,0.0526,0.0452,0.0480,
新宿 (Shinjuku),2012-10-15,05:01～06:00,0.0518,0.0445,0.0475,
新宿 (Shinjuku),2012-10-15,04:01～05:00,0.0506,0.0432,0.0471,
新宿 (Shinjuku),2012-10-15,03:01～04:00,0.0516,0.0434,0.0479,
新宿 (Shinjuku),2012-10-15,02:01～03:00,0.0510,0.0453,0.0477,
新宿 (Shinjuku),2012-10-15,01:01～02:00,0.0499,0.0438,0.0471,
新宿 (Shinjuku),2012-10-15,00:01～01:00,0.0492,0.0444,0.0468,
